Hourly Data Report for October 06, 2014

All times are specified in Local Standard Time (LST). Add 1 hour to adjust for Daylight Saving Time where and when it is observed.

HALL BEACH A
NUNAVUT

68°46'33.000" N
81°14'33.000" W
9.10 m
2402354
71293
YUX

Download Data

Hourly Data (October 2014)
Hourly Data Report for October 6, 2014
Temp Definition
°C
Dew Point Temp Definition
°C
Rel Hum Definition
%
Wind Dir Definition
10's deg

Wind Spd Definition
km/h
Visibility Definition
km
Stn Press Definition
kPa
Hmdx Definition


Wind Chill Definition


Weather Definition


TIME
00:00 Legend Double Dagger -2.2 -3.6 90 8 37 14.5 102.15   -10 LegendNANA
01:00 Legend Double Dagger -2.4 -4.1 88 8 39 16.1 102.15   -11 LegendNANA
02:00 Legend Double Dagger -2.4 -4.0 89 9 35 16.1 102.16   -10 LegendNANA
03:00 Legend Double Dagger -2.5 -4.1 89 8 39 16.1 102.14   -11 LegendNANA
04:00 Legend Double Dagger -2.4 -4.4 86 9 37 16.1 102.12   -10 LegendNANA
05:00 Legend Double Dagger -2.3 -4.2 87 9 41 16.1 102.14   -11 LegendNANA
06:00 Legend Double Dagger -2.2 -3.9 88 8 43 16.1 102.13   -11 LegendNANA
07:00 Legend Double Dagger -2.2 -4.1 87 9 41 16.1 102.12   -10 LegendNANA
08:00 Legend Double Dagger -2.1 -4.0 87 9 48 16.1 102.13   -11 LegendNANA
09:00 Legend Double Dagger -1.8 -3.7 87 9 46 16.1 102.13   -10 LegendNANA
10:00 Legend Double Dagger -1.5 -3.4 87 9 39 16.1 102.12   -9 LegendNANA
11:00 Legend Double Dagger -1.4 -3.3 87 9 43 16.1 102.11   -10 LegendNANA
12:00 Legend Double Dagger -1.2 -3.3 86 9 39 16.1 102.11   -9 LegendNANA
13:00 Legend Double Dagger -1.3 -3.3 86 9 43 16.1 102.12   -9 LegendNANA
14:00 Legend Double Dagger -1.4 -3.4 87 10 43 16.1 102.16   -10 LegendNANA
15:00 Legend Double Dagger -1.2 -3.3 86 9 43 16.1 102.20   -9 LegendNANA
16:00 Legend Double Dagger -1.4 -3.3 87 9 43 16.1 102.22   -10 LegendNANA
17:00 Legend Double Dagger -1.3 -3.2 87 9 37 16.1 102.26   -9 LegendNANA
18:00 Legend Double Dagger -1.4 -3.1 88 9 37 16.1 102.31   -9 LegendNANA
19:00 Legend Double Dagger -1.4 -3.1 88 9 39 16.1 102.32   -9 LegendNANA
20:00 Legend Double Dagger -1.5 -3.2 88 9 41 16.1 102.35   -9 LegendNANA
21:00 Legend Double Dagger -1.5 -3.3 87 9 35 16.1 102.37   -9 LegendNANA
22:00 Legend Double Dagger -1.6 -3.3 88 9 37 16.1 102.40   -9 LegendNANA
23:00 Legend Double Dagger -1.6 -3.5 87 9 39 16.1 102.41   -9 LegendNANA

Notes on Data Quality.

Legend

  • E = Estimated
  • M = Missing
  • NA = Not Available
  • ‡ = Partner data that is not subject to review by the National Climate Archives
Date modified: